• In Netherlands
  • List of Countries
  • For 7 days
  • Water Temperature
  • Satellite Maps
  • Weather Map
  • Weather Widgets
  • user-avatar
    Login

    Hourly Weather Prutz

    Today, 23 April, Sunday

    Time Temperature Precipitation Wind Pressure Humidity
    00:00 +2°C° 0.7 mm 1 mps 633 mmHg 96%
    01:00 -1°C° 0.7 mm 2 mps 633 mmHg 96%
    02:00 +1°C° 0.4 mm 1 mps 633 mmHg 96%
    03:00 0°C° 0.4 mm 1 mps 632 mmHg 96%
    04:00 -1°C° 0.4 mm 1 mps 632 mmHg 97%
    05:00 0°C° 0.2 mm 1 mps 633 mmHg 96%
    06:00 0°C° 0.2 mm 1 mps 633 mmHg 94%
    07:00 +1°C° 0.2 mm 1 mps 633 mmHg 93%
    08:00 +2°C° 0.1 mm 1 mps 633 mmHg 91%
    09:00 +3°C° 0.1 mm 1 mps 634 mmHg 89%
    10:00 +4°C° 0.1 mm 1 mps 634 mmHg 86%
    11:00 +4°C° 0.1 mm 1 mps 634 mmHg 85%
    12:00 +5°C° 0.1 mm 1 mps 634 mmHg 83%
    13:00 +6°C° 0.1 mm 1 mps 634 mmHg 82%
    14:00 +6°C° 0.1 mm 1 mps 634 mmHg 82%
    15:00 +6°C° 0.1 mm 1 mps 634 mmHg 83%
    16:00 +6°C° 0.1 mm 1 mps 634 mmHg 83%
    17:00 +4°C° 0 mm 1 mps 634 mmHg 87%
    18:00 +3°C° 0 mm 1 mps 633 mmHg 91%
    19:00 +1°C° 0 mm 1 mps 633 mmHg 95%
    20:00 0°C° 0 mm 1 mps 633 mmHg 95%
    21:00 -1°C° 0 mm 1 mps 633 mmHg 96%
    22:00 -2°C° 0 mm 1 mps 633 mmHg 96%
    23:00 -2°C° 0 mm 1 mps 633 mmHg 95%

    Tomorrow, 24 April, Monday

    Time Temperature Precipitation Wind Pressure Humidity
    00:00 -2°C° 0 mm 1 mps 633 mmHg 94%
    01:00 -2°C° 0 mm 1 mps 633 mmHg 93%
    02:00 -3°C° 0 mm 1 mps 632 mmHg 91%
    03:00 -3°C° 0 mm 1 mps 632 mmHg 89%
    04:00 -4°C° 0 mm 1 mps 631 mmHg 87%
    05:00 -2°C° 0 mm 1 mps 632 mmHg 86%
    06:00 0°C° 0 mm 1 mps 633 mmHg 85%
    07:00 +2°C° 0 mm 1 mps 633 mmHg 84%
    08:00 +4°C° 0 mm 1 mps 633 mmHg 82%
    09:00 +6°C° 0 mm 1 mps 634 mmHg 80%
    10:00 +8°C° 0 mm 1 mps 634 mmHg 78%
    11:00 +9°C° 0 mm 1 mps 634 mmHg 76%
    12:00 +9°C° 0 mm 1 mps 634 mmHg 74%
    13:00 +10°C° 0 mm 1 mps 634 mmHg 73%
    14:00 +10°C° 0.2 mm 1 mps 633 mmHg 74%
    15:00 +10°C° 0.2 mm 1 mps 633 mmHg 76%
    16:00 +10°C° 0.2 mm 1 mps 632 mmHg 77%
    17:00 +8°C° 0.3 mm 1 mps 631 mmHg 83%
    18:00 +6°C° 0.3 mm 1 mps 631 mmHg 88%
    19:00 +4°C° 0.3 mm 1 mps 630 mmHg 94%
    20:00 +4°C° 0.1 mm 1 mps 630 mmHg 94%
    21:00 +3°C° 0.1 mm 2 mps 630 mmHg 94%
    22:00 +3°C° 0.1 mm 2 mps 630 mmHg 95%
    23:00 +2°C° 0 mm 2 mps 630 mmHg 95%

    Day after tomorrow, 25 April, Tuesday

    Time Temperature Precipitation Wind Pressure Humidity
    00:00 +2°C° 0 mm 2 mps 629 mmHg 95%
    01:00 +2°C° 0 mm 2 mps 629 mmHg 95%
    02:00 +2°C° 0 mm 2 mps 629 mmHg 95%
    03:00 +1°C° 0 mm 2 mps 628 mmHg 94%
    04:00 +1°C° 0 mm 2 mps 628 mmHg 94%
    05:00 +2°C° 0.1 mm 2 mps 628 mmHg 93%
    06:00 +3°C° 0.1 mm 2 mps 628 mmHg 92%
    07:00 +4°C° 0.1 mm 2 mps 628 mmHg 91%
    08:00 +5°C° 0.1 mm 2 mps 628 mmHg 87%
    09:00 +6°C° 0.1 mm 2 mps 629 mmHg 83%
    10:00 +8°C° 0.1 mm 2 mps 629 mmHg 79%
    11:00 +8°C° 0.5 mm 2 mps 629 mmHg 80%
    12:00 +8°C° 0.5 mm 2 mps 628 mmHg 81%
    13:00 +8°C° 0.5 mm 2 mps 628 mmHg 82%
    14:00 +8°C° 1.2 mm 2 mps 628 mmHg 84%
    15:00 +7°C° 1.2 mm 2 mps 628 mmHg 87%
    16:00 +6°C° 1.2 mm 2 mps 627 mmHg 89%
    17:00 +5°C° 1.7 mm 2 mps 627 mmHg 92%
    18:00 +5°C° 1.7 mm 1 mps 627 mmHg 94%
    19:00 +4°C° 1.7 mm 1 mps 627 mmHg 97%
    20:00 +4°C° 1.4 mm 1 mps 627 mmHg 97%
    21:00 +3°C° 1.4 mm 1 mps 627 mmHg 97%
    22:00 +3°C° 1.4 mm 1 mps 627 mmHg 98%
    23:00 +2°C° 1.1 mm 1 mps 627 mmHg 98%

    26 April, Wednesday

    Time Temperature Precipitation Wind Pressure Humidity
    00:00 +2°C° 1.1 mm 1 mps 626 mmHg 98%
    01:00 +2°C° 1.1 mm 1 mps 626 mmHg 98%
    02:00 +2°C° 1 mm 1 mps 626 mmHg 98%
    03:00 +1°C° 1 mm 1 mps 625 mmHg 98%
    04:00 +1°C° 1 mm 1 mps 625 mmHg 98%
    05:00 +1°C° 1.2 mm 1 mps 625 mmHg 98%
    06:00 +1°C° 1.2 mm 1 mps 625 mmHg 97%
    07:00 +1°C° 1.2 mm 1 mps 625 mmHg 97%
    08:00 +1°C° 1.4 mm 1 mps 625 mmHg 97%
    09:00 +2°C° 1.4 mm 1 mps 625 mmHg 97%
    10:00 +1°C° 1.4 mm 2 mps 625 mmHg 97%
    11:00 +1°C° 1.6 mm 2 mps 625 mmHg 97%
    12:00 +1°C° 1.6 mm 2 mps 625 mmHg 97%
    13:00 +1°C° 1.6 mm 2 mps 625 mmHg 98%
    14:00 -1°C° 1.4 mm 2 mps 625 mmHg 98%
    15:00 -1°C° 1.4 mm 2 mps 625 mmHg 98%
    16:00 -1°C° 1.4 mm 2 mps 625 mmHg 98%
    17:00 -2°C° 1.1 mm 2 mps 625 mmHg 98%
    18:00 0°C° 1.1 mm 1 mps 625 mmHg 98%
    19:00 -1°C° 1.1 mm 1 mps 625 mmHg 98%
    20:00 -2°C° 0.7 mm 1 mps 625 mmHg 98%
    21:00 -2°C° 0.7 mm 1 mps 625 mmHg 98%
    22:00 -3°C° 0.7 mm 1 mps 625 mmHg 98%
    23:00 -3°C° 0.6 mm 1 mps 625 mmHg 98%

    27 April, Thursday

    Time Temperature Precipitation Wind Pressure Humidity
    00:00 -3°C° 0.6 mm 1 mps 624 mmHg 98%
    01:00 -3°C° 0.6 mm 1 mps 624 mmHg 98%
    02:00 -3°C° 0.5 mm 1 mps 624 mmHg 98%
    03:00 -3°C° 0.5 mm 1 mps 624 mmHg 98%
    04:00 -3°C° 0.5 mm 1 mps 624 mmHg 98%
    05:00 -3°C° 0.9 mm 1 mps 624 mmHg 97%
    06:00 -3°C° 0.9 mm 1 mps 624 mmHg 97%
    07:00 -5°C° 0.9 mm 2 mps 625 mmHg 97%
    08:00 -5°C° 1.1 mm 2 mps 625 mmHg 97%
    09:00 -4°C° 1.1 mm 2 mps 625 mmHg 97%
    10:00 -4°C° 1.1 mm 2 mps 625 mmHg 97%
    11:00 -4°C° 1 mm 2 mps 626 mmHg 96%
    12:00 -3°C° 1 mm 2 mps 626 mmHg 96%
    13:00 -3°C° 1 mm 2 mps 626 mmHg 96%
    14:00 -3°C° 0.7 mm 2 mps 626 mmHg 96%
    15:00 -3°C° 0.7 mm 2 mps 626 mmHg 97%
    16:00 -3°C° 0.7 mm 2 mps 627 mmHg 97%
    17:00 -4°C° 0.4 mm 2 mps 627 mmHg 97%
    18:00 -4°C° 0.4 mm 2 mps 627 mmHg 97%
    19:00 -5°C° 0.4 mm 2 mps 627 mmHg 98%
    20:00 -4°C° 0.2 mm 1 mps 627 mmHg 98%
    21:00 -6°C° 0.2 mm 1 mps 627 mmHg 98%
    22:00 -6°C° 0.2 mm 1 mps 627 mmHg 98%
    23:00 -7°C° 0.2 mm 1 mps 627 mmHg 98%

    28 April, Friday

    Time Temperature Precipitation Wind Pressure Humidity
    00:00 -7°C° 0.2 mm 1 mps 627 mmHg 98%
    01:00 -7°C° 0.2 mm 1 mps 627 mmHg 98%
    02:00 -7°C° 0.3 mm 1 mps 627 mmHg 98%
    03:00 -7°C° 0.3 mm 1 mps 628 mmHg 97%
    04:00 -7°C° 0.3 mm 1 mps 628 mmHg 97%
    05:00 -6°C° 0.5 mm 1 mps 628 mmHg 97%
    06:00 -4°C° 0.5 mm 1 mps 629 mmHg 97%
    07:00 -6°C° 0.5 mm 2 mps 629 mmHg 96%
    08:00 -5°C° 0.6 mm 2 mps 629 mmHg 96%
    09:00 -4°C° 0.6 mm 2 mps 630 mmHg 95%
    10:00 -3°C° 0.6 mm 2 mps 630 mmHg 95%
    11:00 -3°C° 0.6 mm 2 mps 630 mmHg 95%
    12:00 -3°C° 0.6 mm 2 mps 630 mmHg 95%
    13:00 -2°C° 0.6 mm 2 mps 630 mmHg 95%
    14:00 -2°C° 0.5 mm 2 mps 630 mmHg 95%
    15:00 -2°C° 0.5 mm 2 mps 630 mmHg 95%
    16:00 -2°C° 0.5 mm 2 mps 630 mmHg 95%
    17:00 -3°C° 0.4 mm 2 mps 630 mmHg 96%
    18:00 -3°C° 0.4 mm 2 mps 630 mmHg 96%
    19:00 -4°C° 0.4 mm 2 mps 631 mmHg 97%
    20:00 -3°C° 0.3 mm 1 mps 631 mmHg 97%
    21:00 -3°C° 0.3 mm 1 mps 631 mmHg 97%
    22:00 -4°C° 0.3 mm 1 mps 631 mmHg 97%
    23:00 -6°C° 0.1 mm 1 mps 631 mmHg 98%
    Show more